Home   Weather   Da Nang   Past weeks

Flag for Vietnam Past Weather in Da Nang, Vietnam — Yesterday and Last 2 Weeks

Now
72 °F

Fog.


Feels Like: 69 °F
Forecast: 72 / 80 °F
Wind: 2 mph from Northwest

Location: Da Nang Airport

Current Time: Jan 18, 2017 at 2:44:00 am

Latest Report: Jan 18, 2017 at 2:00 am


Visibility: 3 mi

Pressure: 30.07 "Hg

Humidity: 88%

Dew Point: 68 °F

Location of Da NangLocation

Past Weather in Da Nang — Graph

°F

Da Nang Temperature Yesterday

Maximum temperature yesterday: 82 °F (at 12:30 pm)
Minimum temperature yesterday: 72 °F (at 12:00 am)
Average temperature yesterday: 75 °F

High & Low Weather Summary for the Past Weeks

 TemperatureHumidityPressure
High84 °F (Jan 12, 11:30 am)100% (Jan 4, 4:30 pm)30.09 "Hg (Jan 4, 4:30 pm)
Low68 °F (Jan 16, 5:30 am)62% (Jan 13, 10:00 am)29.80 "Hg (Jan 12, 1:30 pm)
Average75 °F87%29.94 "Hg
* Reported Jan 3 1:00 am — Jan 18 1:30 am, Da Nang, Weather by CustomWeather, © 2017

Note: Actual official high and low records may vary slightly from our data, if they occured in-between our weather recording intervals... More about our weather records

Advertising

Da Nang Weather History for the Previous 24 Hours

Scroll right to see more
 ConditionsComfort  
Time TempWeatherWind HumidityBarometerVisibility
1:30 am
Wed, Jan 18
72 °FFog.3 mph94%30.07 "Hg3 mi
1:00 am70 °FFog.No wind94%30.07 "Hg3 mi
12:30 am72 °FFog.No wind88%30.07 "Hg3 mi
12:00 am72 °FFog.1 mph94%30.09 "Hg3 mi
11:30 pm
Tue, Jan 17
72 °FFog.1 mph94%30.09 "Hg3 mi
11:00 pm72 °FPassing clouds.1 mph94%30.09 "Hg4 mi
10:30 pm72 °FPassing clouds.1 mph94%30.09 "Hg4 mi
10:00 pm72 °FPassing clouds.1 mph94%30.09 "Hg4 mi
9:30 pm72 °FPassing clouds.1 mph94%30.09 "Hg4 mi
9:00 pm72 °FPassing clouds.1 mph94%30.09 "Hg4 mi
8:30 pm73 °FPassing clouds.2 mph89%30.09 "Hg5 mi
8:00 pm73 °FPassing clouds.2 mph89%30.09 "Hg5 mi
7:30 pm73 °FPassing clouds.3 mph89%30.07 "Hg5 mi
7:00 pm73 °FPassing clouds.3 mph89%30.07 "Hg5 mi
6:30 pm73 °FPassing clouds.6 mph89%30.04 "Hg5 mi
6:00 pm73 °FPassing clouds.5 mph89%30.04 "Hg5 mi
5:30 pm73 °FScattered clouds.7 mph89%30.04 "Hg5 mi
5:00 pm75 °FScattered clouds.7 mph83%30.01 "Hg5 mi
4:30 pm75 °FScattered clouds.7 mph83%30.01 "Hg5 mi
4:00 pm77 °FScattered clouds.7 mph79%30.01 "Hg5 mi
3:30 pm77 °FScattered clouds.6 mph79%30.01 "Hg5 mi
3:00 pm79 °FScattered clouds.7 mph74%29.98 "Hg5 mi
2:30 pm81 °FScattered clouds.7 mph74%29.98 "Hg5 mi
2:00 pm81 °FScattered clouds.6 mph74%30.01 "Hg5 mi
1:30 pm81 °FScattered clouds.7 mph74%30.01 "Hg5 mi
1:00 pm79 °FScattered clouds.7 mph74%30.01 "Hg5 mi
12:30 pm82 °FScattered clouds.8 mph70%30.04 "Hg5 mi
12:00 pm81 °FScattered clouds.7 mph74%30.04 "Hg5 mi
11:30 am81 °FScattered clouds.7 mph74%30.04 "Hg5 mi
11:00 am79 °FScattered clouds.5 mph74%30.07 "Hg5 mi
10:30 am79 °FScattered clouds.5 mph79%30.07 "Hg5 mi
10:00 am81 °FScattered clouds.3 mph74%30.07 "Hg5 mi
9:30 am79 °FScattered clouds.2 mph74%30.07 "Hg5 mi
9:00 am75 °FBroken clouds.2 mph83%30.07 "Hg4 mi
8:30 am75 °FBroken clouds.3 mph83%30.07 "Hg4 mi
8:00 am73 °FBroken clouds.2 mph89%30.04 "Hg4 mi
7:30 am73 °FBroken clouds.1 mph89%30.04 "Hg4 mi
7:00 am72 °FBroken clouds.3 mph94%30.04 "Hg4 mi
6:30 am72 °FBroken clouds.2 mph88%30.01 "Hg4 mi
6:00 am72 °FFog.3 mph88%30.01 "Hg3 mi
5:30 am72 °FFog.2 mph94%30.01 "Hg3 mi
5:00 am72 °FFog.5 mph94%29.98 "Hg3 mi
4:30 am72 °FFog.5 mph94%29.98 "Hg3 mi
4:00 am72 °FFog.5 mph88%29.98 "Hg3 mi
3:30 am72 °FFog.5 mph88%29.98 "Hg3 mi
3:00 am72 °FFog.3 mph94%29.98 "Hg3 mi
2:30 am72 °FFog.3 mph94%29.98 "Hg3 mi
2:00 am72 °FFog.3 mph94%29.98 "Hg3 mi
Weather by CustomWeather, © 2017

See weather overviewHow to use our weather pages